Regional Weather Roundup
Issued by NWS Jackson, KY

Home | Current Version | Previous Version | Text Only | Print | Product List | Glossary On
Versions: 1 2 3 4 5 6 7 8 9 10 11 12 13 14 15 16 17 18 19 20 21 22 23 24 25 26 27 28 29 30 31 32 33 34 35 36 37 38 39 40 41 42 43 44 45 46 47 48 49 50
000
ASUS43 KJKL 230110
RWRJKL

EAST KENTUCKY HOURLY WEATHER ROUNDUP
NATIONAL WEATHER SERVICE JACKSON KY
900 PM EDT WED MAR 22 2017

NOTE: "FAIR" INDICATES FEW OR NO CLOUDS BELOW 12,000 FEET WITH
NO SIGNIFICANT WEATHER AND/OR OBSTRUCTIONS TO VISIBILITY.

* THESE REPORTS ARE NOT UNDER NWS QUALITY CONTROL AND MAY NOT
  REPORT WEATHER SUCH AS PRECIPITATION AND FOG.

KYZ079-080-083-085-087-088-110-112-115-119-120-230200
...EASTERN KENTUCKY...

CITY           SKY/WX    TMP DP  RH WIND       PRES   REMARKS
JACKSON        CLEAR     39  15  37 VRB5      30.39R
LONDON         CLEAR     42  14  32 N8        30.36R
SOMERSET*      CLEAR     41  19  42 N13       30.38R
MONTICELLO*    CLEAR     42  21  43 N17       30.38R
WILLIAMSBURG*  CLEAR     43  16  33 N8        30.35R
MIDDLESBORO*   CLEAR     46  22  38 CALM      30.34R
HARLAN APT*    CLEAR     45  12  26 N5        30.35R
PIKE CO APT*     N/A     39  14  36 NE6       30.38R WCI  35
BIG SANDY APT* PTCLDY    37  17  42 NE7       30.40R WCI  32
MOREHEAD APT*  PTCLDY    39  14  35 NE6       30.43R WCI  35
ASHLAND*       PTCLDY    37  19  48 NE3       30.43S
$$

KYZ035-036-041-042-044-050-067-078-099-230200
...CENTRAL KENTUCKY...

CITY           SKY/WX    TMP DP  RH WIND       PRES   REMARKS
MT STERLING*   CLEAR     37  19  48 NE6       30.43R WCI  33
FLEMING/MASON* PTCLDY    36  18  47 NE8       30.44R WCI  30
DANVILLE*      CLEAR     36  21  55 NE6       30.41R WCI  31
LEXINGTON      CLEAR     36  18  48 NE9       30.42R WCI  29
FRANKFORT      CLEAR     40  18  41 NE8       30.41S WCI  34
LOUISVILLE     PTCLDY    43  13  29 E10       30.42S
LEBANON*         N/A     39  19  45 NE7       30.40S WCI  34
GLASGOW*       CLEAR     43  19  38 NE8       30.37S
BOWLING GREEN  PTCLDY    45  19  35 E7        30.38R
$$

KYZ091>093-OHZ055-061-077-WVZ005-015-034-035-042-230200
...SOUTHERN OHIO/WEST VIRGINIA...

CITY           SKY/WX    TMP DP  RH WIND       PRES   REMARKS
COVINGTON      PTCLDY    36  20  52 E14       30.45R WCI  27
COLUMBUS       PTCLDY    33  16  49 NE9       30.47S WCI  25
DAYTON         PTCLDY    31  17  56 E8        30.48R WCI  23
WILMINGTON     PTCLDY    30  22  72 NE9       30.46R WCI  22
HUNTINGTON     PTCLDY    39  13  34 NE8       30.43R WCI  33
CHARLESTON     PTCLDY    39  14  36 N6        30.42R WCI  35
PINEVILLE*     CLEAR     35  20  53 MISG      30.42R
BECKLEY        CLEAR     35  10  35 N6        30.36R WCI  30
BLUEFIELD      CLEAR     35  13  40 NE7       30.34R WCI  29
LOGAN CO APT*    N/A     37  12  35 CALM      30.39R
$$

VAZ002-007-008-TNZ017-027-036-066-071-230200
...SOUTHWEST VIRGINIA/EAST TENNESSEE...

CITY           SKY/WX    TMP DP  RH WIND       PRES   REMARKS
WISE*          CLEAR     37  12  35 CALM      30.35R
JONESVILLE*      N/A     45  16  31 CALM      30.35R
ABINGDON*      CLEAR     45  14  28 NE3       30.33R
BRISTOL        PTCLDY    44  17  33 N7        30.33R
MORRISTOWN*    PTCLDY    50  16  25 NE6       30.29R
SEVIERVILLE*   CLEAR     46  21  36 CALM      30.28R
KNOXVILLE      PTCLDY    51  20  29 N8        30.27R
LAFOLLETTE*    CLEAR     50  14  23 N6        30.34R
OAK RIDGE      CLEAR     50  17  27 E3        30.31R
CROSSVILLE     CLEAR     46  15  28 NE7       30.30R
NASHVILLE      PTCLDY    49  20  31 N10       30.33S
$$

...KEY TO REMARKS...
VSB - VISIBILITY IN MILES
WCI - WIND CHILL INDEX
HX  - HEAT INDEX

$$



USA.gov is the U.S. government's official web portal to all federal, state and local government web resources and services.